STARLINK-2242 (48587 NORAD) Tracking and Keplerian Element Data

This shows tracking and keplerian element data for the satellite.

Feedback or suggestion? Click here.




ElementValue
Catalog48587
NameSTARLINK-2242
Epoch Orbit2329
Epoch Day288.02380879
Epoch Year2021
RAAN154.2076
Inclination53.054
Eccentricity0.0001917
Argument of Perigee74.8194
Mean Anonmoly285.3007
Mean Motion15.06386247
Decay Rate-1.865E-05
L11 48587U 21041AL 21288.02380879 -.00001865 00000-0 -10634-3 0 9997
L22 48587 53.0540 154.2076 0001917 74.8194 285.3007 15.06386247 23290

Live tracking and technical data element details for STARLINK-2242 (NORAD 48587). STARLINK-2242 can be tracked NOW for your location showing map with azimuth and elevation plus other details from your city location.

Track the satellite on the map from your city or location and see movement details for azimuth, elevation, latitude, longitude, range, height, and movement on the map or in text.







IsCatalogInMostPopularTable: catalog: 48587, numindb: 38
Update: records affected: 1



GetName: 48587 STARLINK-2242

Hit Count: updated at: Tue, 19 Oct 2021 08:47:39 GMT